www.pogodaiklimat.ru

Погода и климат >> Архив погоды >> Южная Африка >> Мандини


ПОГОДА в Мандини

  • Прогноз погоды в Мандини
  • Монитор погоды в Мандини

АРХИВ ПОГОДЫ в Мандини

Время (UTC), дата Ветер
(напр.,м/с)
 
Видим.   Явления Облачность Т
(С)
Тd
(С)
f
(%)
Тe
(С)
Тes
(С)
Комфортность P
(гПа)
Po
(гПа)
Тmin
(С)
Tmax
(С)
R
(мм)
R24
(мм)
S
(см)
15 16.09 В 3 н/о н/о +26.0 +18.5 63 +31 +31 очень
душно
1014.9 1001.9 +26.0 +31.5
18 16.09 СВ 3 н/о н/о +22.7 +17.4 72 +28 +28 душно 1016.9 1003.8 +22.7 +31.5
21 16.09 СВ 2 н/о н/о +20.6 +17.0 80 +25 +25 комфорт 1017.9 1004.7 +20.6 +31.5
00 17.09 С 2 н/о н/о +20.0 +16.8 82 +23 +23 комфорт 1017.1 1003.9 +19.9 +31.5
03 17.09 С 3 н/о н/о +19.1 +16.5 85 +21 +21 комфорт 1017.0 1003.7 +18.7 +31.5
06 17.09 ЮЗ 3 н/о н/о +21.3 +17.1 77 +25 +25 комфорт 1018.1 1004.9 +18.0
09 17.09 ЮВ 2 н/о н/о +26.2 +17.4 58 +30 +30 душно 1018.3 1005.3 +18.0 +26.4
12 17.09 ЮВ 2 н/о н/о +26.7 +17.3 56 +31 +31 душно 1016.4 1003.5 +18.0 +27.1
15 17.09 ЮВ 2 н/о н/о +22.5 +17.0 71 +27 +27 душно 1016.6 1003.5 +22.5 +27.1
18 17.09 штиль 0 н/о н/о +19.0 +16.6 86 +20 +20 1017.1 1003.8 +19.0 +27.1
21 17.09 штиль 0 н/о н/о +19.4 +17.0 86 +21 +21 комфорт 1017.5 1004.2 +18.6 +27.1
00 18.09 штиль 0 н/о н/о +19.1 +17.0 88 +21 +21 комфорт 1017.3 1004.0 +18.6 +27.1
03 18.09 штиль 0 н/о н/о +19.4 +17.3 88 +21 +21 комфорт 1017.4 1004.1 +18.6 +27.1
06 18.09 Ю 2 н/о н/о +21.2 +17.8 81 +25 +25 комфорт 1019.9 1006.7 +18.6
09 18.09 ЮВ 2 н/о н/о +25.5 +15.6 54 +29 +29 душно 1019.6 1006.6 +18.6 +25.8
12 18.09 Ю 3 н/о н/о +24.7 +15.4 56 +28 +28 душно 1019.2 1006.1 +18.6 +26.9
15 18.09 Ю 3 н/о н/о +21.7 +16.7 73 +26 +26 душно 1020.6 1007.4 +21.7 +26.9
18 18.09 ЮЗ 3 н/о н/о +20.9 +16.1 74 +25 +25 комфорт 1023.0 1009.7 +20.6 +26.9
21 18.09 Ю 2 н/о н/о +19.0 +16.6 86 +21 +21 комфорт 1024.4 1011.0 +19.0 +26.9
00 19.09 Ю 1 н/о н/о +19.6 +17.0 85 +23 +23 комфорт 1024.3 1010.9 +19.0 +26.9
03 19.09 ЮЗ 1 н/о н/о +19.6 +17.2 86 +23 +23 комфорт 1024.4 1011.0 +19.0 +26.9
06 19.09 СЗ 1 н/о н/о +22.6 +18.0 75 +28 +28 душно 1024.8 1011.6 +19.0
09 19.09 В 3 н/о н/о +25.7 +17.2 59 +30 +30 душно 1023.6 1010.5 +19.0 +25.9
12 19.09 В 3 н/о н/о +25.0 +17.3 62 +29 +29 душно 1021.5 1008.4 +19.0 +26.4 0.2
15 19.09 В 3 н/о н/о +22.0 +17.0 73 +26 +26 душно 1021.5 1008.3 +22.0 +26.4
18 19.09 СВ 2 н/о н/о +20.7 +16.5 77 +25 +25 комфорт 1021.9 1008.6 +20.6 +26.4 0.2
21 19.09 СВ 4 н/о н/о +20.3 +16.2 77 +23 +23 комфорт 1021.4 1008.1 +20.2 +26.4
00 20.09 С 3 н/о н/о +19.7 +15.6 77 +22 +22 комфорт 1019.3 1006.0 +19.5 +26.4 0.2
03 20.09 С 4 н/о н/о +19.7 +15.8 78 +22 +22 комфорт 1016.6 1003.3 +19.1 +26.4
06 20.09 С 3 н/о н/о +24.3 +16.4 61 +28 +28 душно 1015.6 1002.6 +19.1 0.2
09 20.09 С 2 н/о н/о +33.5 +14.4 32 +35 +35 душно 1013.2 1000.6 +19.1 +33.7
12 20.09 СВ 3 н/о н/о +36.7 +13.9 26 +37 +37 очень
жарко
1010.0 997.6 +19.1 +36.9
15 20.09 В 1 н/о н/о +29.6 +16.3 45 +33 +33 душно 1010.1 997.4 +29.6 +36.9
18 20.09 СВ 3 н/о н/о +23.5 +15.9 62 +27 +27 душно 1010.9 997.9 +23.5 +36.9
21 20.09 С 3 н/о н/о +21.9 +15.3 66 +25 +25 комфорт 1010.8 997.7 +21.8 +36.9
00 21.09 С 2 н/о н/о +21.1 +15.0 68 +24 +24 комфорт 1010.0 996.9 +21.0 +36.9
03 21.09 ЮЗ 1 н/о н/о +19.9 +16.7 82 +24 +24 комфорт 1012.4 999.2 +19.0 +36.9
06 21.09 Ю 2 н/о н/о +21.7 +14.7 64 +25 +25 комфорт 1014.7 1001.6 +19.0
09 21.09 ЮВ 2 н/о н/о +26.5 +13.8 46 +29 +29 жарко 1014.1 1001.2 +19.0 +26.6
12 21.09 В 2 н/о н/о +26.5 +15.1 50 +29 +29 жарко 1011.3 998.4 +19.0 +28.1
15 21.09 В 2 н/о н/о +22.3 +16.2 68 +26 +26 жарко 1010.4 997.3 +22.3 +28.1
18 21.09 ЮВ 1 н/о н/о +19.2 +16.2 83 +22 +22 комфорт 1010.7 997.5 +19.2 +28.1
21 21.09 З 1 н/о н/о +19.2 +16.6 85 +22 +22 комфорт 1010.4 997.2 +19.1 +28.1
00 22.09 Ю 1 н/о н/о +19.3 +16.5 84 +22 +22 комфорт 1010.4 997.2 +19.1 +28.1
03 22.09 Ю 1 н/о н/о +19.5 +16.5 83 +23 +23 комфорт 1012.3 999.1 +19.1 +28.1
06 22.09 Ю 2 н/о н/о +21.5 +16.1 71 +25 +25 комфорт 1014.9 1001.7 +19.1
09 22.09 Ю 2 н/о н/о +22.1 +16.2 69 +26 +26 душно 1014.5 1001.4 +19.1 +23.2
12 22.09 ЮВ 2 н/о н/о +21.8 +15.7 68 +25 +25 комфорт 1012.8 999.7 +19.1 +25.4
15 22.09 Ю 2 н/о н/о +20.1 +15.8 76 +23 +23 комфорт 1014.6 1001.4 +20.1 +25.4
18 22.09 Ю 2 н/о н/о +17.8 +15.9 89 +18 +18 1017.9 1004.5 +17.7 +25.4 1
21 22.09 Ю 2 н/о н/о +15.3 +11.7 79 +15 +15 1019.9 1006.4 +15.0 +25.4
00 23.09 Ю 2 н/о н/о +15.1 +9.3 68 +15 +15 1021.2 1007.7 +15.0 +25.4 1
03 23.09 Ю 2 н/о н/о +14.5 +7.6 63 +14 +14 1022.8 1009.2 +13.6 +25.4
06 23.09 ЮЗ 3 н/о н/о +15.1 +5.9 54 +15 +15 1025.2 1011.6 +13.6 1
09 23.09 Ю 3 н/о н/о +17.7 +4.0 40 +18 +18 1026.0 1012.5 +13.6 +17.7
12 23.09 Ю 2 н/о н/о +19.9 +5.6 39 +21 +21 комфорт 1024.8 1011.5 +13.6 +20.0

 

Местоположение метеостанции Мандини (Южная Африка): широта -29.15 долгота 31.40 высота над уровнем моря 112 м.

В архиве по умолчанию представлена погода в Мандини за последнюю неделю. Архивные данные за месяц целиком и за предыдущие месяцы, начиная с января 2011 года, Вы можете получить, выбрав интересующий диапазон дат из раскрывающегося списка и нажав кнопку "Ввод!".


*Определитесь, кто Вы:
робот инопланетянин человек

Внимание! Время в таблицах - всемирное. Для получения местного времени необходимо прибавить поправку, которая равна 2 ч.

Смотрите также архив погоды в соседних городах и на ближайших метеорологических станциях:

Погода в Мтунзини (Южная Африка) (37 км)
Погода в Аэропорту Кинг Шака (Южная Африка) (57 км)
Погода в Маунт Эджком (Южная Африка) (70 км)
Погода в Аэропорту Вирджиния (Южная Африка) (76 км)
Погода в Грейтауне (Южная Африка) (78 км)
Погода в Ричардс-Бей (Южная Африка) (81 км)
Погода в Бабананго (Южная Африка) (90 км)
Погода в Удунди (Южная Африка) (92 км)
Погода в Дурбане (Южная Африка) (100 км)
Погода в Питермарицбурге (Южная Африка) (111 км)

Пояснения к столбцам:

Ветер - указаны скорость ветра в м/с - средняя за 10 мин, порывы в срок и между сроками (в фигурных скобках) и направление, откуда дует ветер: С - северный, СВ - северо-восточный, В - восточный, ЮВ - юго-восточный, Ю - южный, ЮЗ - юго-западный, З - западный, СЗ - северо-западный.
Видимость - горизонтальная дальность видимости в метрах или километрах. При видимости от 1 до 10 км при отсутствии осадков обычно наблюдается дымка, при ухудшении видимости до 1 км и менее - туман. В сухую погоду видимость может ухудшаться дымом, пылью или мглою.
Явления - указаны атмосферные явления, наблюдавшиеся в срок или в последний час перед сроком; фигурными скобками обозначены явления, наблюдавшиеся между сроками (за 1-3 часа до срока); квадратными скобками обозначены град или гололедные отложения с указанием их диаметра в мм.
Облачность - указаны через наклонную черту общая и нижняя облачность в баллах и высота нижней границы облаков в метрах; квадратными скобками обозначены формы облаков: Ci - перистые, Cs - перисто-слоистые, Cc - перисто-кучевые, Ac - высококучевые, As - высокослоистые, Sc - слоисто-кучевые, Ns - слоисто-дождевые, Cu - кучевые, Cb - кучево-дождевые. Подробнее классификацию облаков см. в Атласе облаков (PDF).
T - Температура воздуха - температура, измеренная на высоте 2 м над землей.
Td - Температура точки росы - температура, при понижении до которой содержащийся в воздухе водяной пар достигнет насыщения.
f - Относительная влажность воздуха - влажноcть воздуха, измеренная на высоте 2 м над землей.
Te - Эффективная температура - температура, которую ощущает одетый по сезону человек в тени. Характеристика душности погоды. При расчете учитывается влияние влажности воздуха и скорости ветра на теплоощущения человека.
Tes - Эффективная температура на солнце - температура, которую ощущает человек, с поправкой на солнечный нагрев. Характеристика знойности погоды. Зависит от высоты солнца над горизонтом, облачности и скорости ветра. Ночью, в пасмурную погоду, а также при ветре 12 м/с и более поправка равна нулю.
P - Атмосферное давление - приведенное к уровню моря атмосферное давление.
Po - Атмосферное давление - измеренное на уровне метеостанции атмосферное давление.
Tmin - Минимальная температура - минимум температуры воздуха на высоте 2 м над землей.
Tmax - Максимальная температура - максимум температуры воздуха на высоте 2 м над землей.
R - Количество осадков - Количество выпавших осадков за период времени, мм. При наведении курсора мыши на число - период времени, за который выпало указанное количество осадков.
R24 - Количество осадков - Количество выпавших осадков за 24 часа, мм.
S - Снежный покров - Высота снежного покрова, см. При наведении курсора мыши на число - состояние снежного покрова и степень покрытия местности в баллах.